Weather History for Meadville, PA

Change the Weather History Date:

Wednesday, November 21, 2012

  Actual Average Record
Temperature  
Mean Temperature 44 °F -  
Max Temperature 57 °F 47 °F 69 °F (1953)
Min Temperature 32 °F 29 °F 2 °F (1951)
Degree Days  
Heating Degree Days 20    
Moisture  
Dew Point 27 °F    
Average Humidity 58    
Maximum Humidity 89    
Minimum Humidity 20    
Precipitation  
Precipitation 0.00 in - - ()
Sea Level Pressure  
Sea Level Pressure 30.21 in    
Wind  
Wind Speed 1 mph (ESE)    
Max Wind Speed 5 mph    
Max Gust Speed -    
Visibility 9 miles    
Events      
Averages and records for this station are not official NWS values.
T = Trace of Precipitation, MM = Missing Value Source: NWS Daily Summary

Daily Weather History Graph

Daily Weather History Graph

Search for Another Location

Airport:

Trip Planner

Search our weather history database for the weather conditions in past years. The results will help you decide how hot, cold, wet, or windy it might be!

Date:

Astronomy

Nov. 21, 2012 Rise Set
Actual Time 7:17 AM EST 4:55 PM EST
Civil Twilight 6:47 AM EST 5:26 PM EST
Nautical Twilight 6:13 AM EST 6:00 PM EST
Astronomical Twilight 5:40 AM EST 6:33 PM EST
Moon 1:16 PM EST (11/21) 12:30 AM EST (11/21)
Length of Visible Light 10h 38m
Length of Day
9h 38m
First Quarter, 61% of the Moon is Illuminated
Nov 21
First Quarter
Nov 28
Full
Dec 6
Last Quarter
Dec 13
New
Dec 20
First Quarter

Hourly Weather History & Observations

Time (EST) Temp. Windchill Dew Point Humidity Pressure Visibility Wind Dir Wind Speed Gust Speed Precip Events Conditions
12:53 AM 39.0 °F - 32.0 °F 76% 30.16 in 10.0 mi Calm Calm - N/A   Mostly Cloudy
1:53 AM 37.9 °F - 32.0 °F 79% 30.16 in 10.0 mi Calm Calm - N/A   Overcast
2:53 AM 36.0 °F - 30.9 °F 82% 30.17 in 10.0 mi Calm Calm - N/A   Scattered Clouds
3:53 AM 37.0 °F - 30.9 °F 79% 30.17 in 10.0 mi Calm Calm - N/A   Clear
4:53 AM 37.0 °F - 30.9 °F 79% 30.18 in 10.0 mi Calm Calm - N/A   Clear
5:53 AM 33.1 °F - 30.0 °F 89% 30.21 in 5.0 mi Calm Calm - N/A   Clear
6:53 AM 32.0 °F 28.7 °F 28.9 °F 88% 30.22 in 5.0 mi ENE 3.5 mph - N/A   Clear
7:53 AM 33.1 °F - 28.9 °F 85% 30.24 in 6.0 mi Calm Calm - N/A   Clear
8:53 AM 37.0 °F - 32.0 °F 82% 30.25 in 9.0 mi Calm Calm - N/A   Clear
9:53 AM 45.0 °F 43.5 °F 32.0 °F 60% 30.24 in 10.0 mi ENE 3.5 mph - N/A   Clear
10:53 AM 50.0 °F - 27.0 °F 41% 30.24 in 10.0 mi East 4.6 mph - N/A   Clear
11:53 AM 53.1 °F - 21.0 °F 29% 30.23 in 10.0 mi Calm Calm - N/A   Clear
12:53 PM 55.0 °F - 24.1 °F 30% 30.21 in 10.0 mi SSW 3.5 mph - N/A   Clear
1:53 PM 55.9 °F - 17.1 °F 22% 30.21 in 10.0 mi Variable 4.6 mph - N/A   Clear
2:53 PM 57.0 °F - 16.0 °F 20% 30.21 in 10.0 mi Variable 3.5 mph - N/A   Clear
3:53 PM 55.0 °F - 21.0 °F 27% 30.21 in 10.0 mi West 3.5 mph - N/A   Clear
4:53 PM 54.0 °F - 14.0 °F 21% 30.21 in 10.0 mi WSW 3.5 mph - N/A   Clear
5:53 PM 46.9 °F - 16.0 °F 29% 30.23 in 10.0 mi NNW 3.5 mph - N/A   Clear
6:53 PM 46.9 °F - 32.0 °F 56% 30.23 in 10.0 mi ENE 3.5 mph - N/A   Clear
7:53 PM 46.9 °F - 34.0 °F 61% 30.23 in 9.0 mi ESE 3.5 mph - N/A   Clear
8:53 PM 45.0 °F - 33.1 °F 63% 30.24 in 10.0 mi Calm Calm - N/A   Clear
9:53 PM 42.1 °F 40.2 °F 32.0 °F 67% 30.23 in 10.0 mi SE 3.5 mph - N/A   Clear
10:53 PM 44.1 °F 41.5 °F 30.9 °F 60% 30.22 in 10.0 mi SE 4.6 mph - N/A   Clear
11:53 PM 41.0 °F - 28.0 °F 60% 30.22 in 10.0 mi Calm Calm - N/A   Clear